Location: Fort Worth, Tx
(32.7431°N, 97.3695°W)
Time: 23:14:58
(UTC-04:00)

Envisat - Pass Details

Date: 06 June 2023
Orbit: 763 x 764 km, 98.2° (Epoch: 02 October)

Event Time Altitude Azimuth Distance (km) Brightness Sun altitude
Rises 04:59:19 0° 38° (NE) 3,228 7.7 -23.9°
Reaches altitude 10° 05:02:57 10° 65° (ENE) 2,298 6.3 -23.4°
Maximum altitude 05:05:18 13° 93° (E) 2,077 5.7 -23.1°
Drops below altitude 10° 05:07:39 10° 121° (ESE) 2,292 5.6 -22.8°
Enters shadow 05:10:55 - 146° (SE) 3,115 6.0 -22.4°
